Location: Breezy Point Observatory
(38.9725°N, 81.7133°W)
Time: 15:34:30
(UTC-04:00)

HST - Visible Passes

Search period start: 22 July 2014 00:00
Search period end: 01 August 2014 00:00
Orbit: 548 x 552 km, 28.5° (Epoch: 21 July)

Date Brightness Start Highest point End Pass type
(mag) Time Alt. Az. Time Alt. Az. Time Alt. Az.
22 Jul 2.5 21:17:18 10° SW 21:20:11 18° S 21:23:04 10° SE visible
22 Jul 3.1 22:58:08 10° SW 22:59:01 13° SW 22:59:01 13° SW visible
23 Jul 3.0 22:51:23 10° SW 22:52:30 14° SW 22:52:30 14° SW visible
24 Jul 3.0 22:44:45 10° SW 22:45:57 13° SSW 22:45:57 13° SSW visible
25 Jul 3.1 22:38:18 10° SW 22:39:21 12° SSW 22:39:21 12° SSW visible
26 Jul 3.2 22:32:22 10° SSW 22:32:45 10° SSW 22:32:45 10° SSW visible
